SCP
0 0 0 0 0 0 0 0 0 0 0 0 0 0 0 0 0 0 0 0 0 0 0 0 0 0 0
0 0 0 0 0 0 0 0 0 0 0 0 0 0 0 0 0 0 0 0 0 0 0 0 0 0 0
0 0 0 0 0 0 0 0 0 0 0 0 0 0 0 0 0 0 0 0 0 0 0 0 0 0 0
0 0 0 0 0 0 0 0 0 0 0 0 0 0 0 0 0 0 0 0 0 0 0 0 0 0 0
0 0 0 0 0 0 0 0 0 0 0 0 0 0 0 0 0 0 0 0 0 0 0 0 0 0 0
0 0 0 0 0 0 0 0 0 0 0 0 0 0 0 0 0 0 0 0 0 0 0 0 0 0 0
0 0 0 0 0 0 0 0 0 0 0 0 0 0 0 0 0 0 0 0 0 0 0 0 0 0 0
0 0 0 0 0 0 0 0 0 0 0 0 0 0 0 0 0 0 0 0 0 0 0 0 0 0 0
0 0 0 0 0 0 0 0 0 0 0 0 0 0 0 0 0 0 0 0 0 0 0 0 0 0 0
0 0 0 0 0 0 0 0 0 0 0 0 0 0 0 0 0 0 0 0 0 0 0 0 0 0 0
0 0 0 0 0 0 0 0 0 0 0 0 0 0 0 0 0 0 0 0 0 0 0 0 0 0 0
0 0 0 0 0 0 0 0 0 0 0 0 0 0 0 0 0 0 0 0 0 0 0 0 0 0 0
0 0 0 0 0 0 0 0 0 0 0 0 0 0 0 0 0 0 0 0 0 0 0 0 0 0 0
0 0 0 0 0 0 0 0 0 0 0 0 0 0 0 0 0 0 0 0 0 0 0 -0 0 0 0
0 0 0 0 0 0 0 0 0 0 0 0 0 0 0 0 0 0 0 0 0 0 0 0 0 0 0
0 0 0 0 0 0 0 0 0 0 0 0 0 0 0 0 0 0 0 0 0 0 0 0 0 0 0
Wind_Speed_500mb
45 42 41 37 34 30 28 24 22 19 18 17 16 14 12 10 8 6 5 7 9 12 14 16 16 16 18
49 47 45 40 37 34 31 28 23 20 17 16 15 14 12 10 7 5 6 8 12 14 17 18 19 19 19
53 53 50 46 43 40 37 34 29 24 20 19 17 15 13 11 9 8 9 12 15 17 20 22 22 23 22
59 59 57 53 50 46 43 39 34 30 27 24 20 19 17 16 15 14 15 16 18 21 24 27 26 26 26
67 66 64 59 54 50 48 44 39 35 30 25 23 22 21 20 20 19 20 21 23 27 29 31 32 31 28
71 72 70 68 62 57 54 52 47 41 36 32 29 28 26 24 22 23 23 24 28 32 35 37 35 35 31
75 75 76 73 68 61 60 57 52 48 42 37 33 30 28 27 26 25 27 28 30 31 33 33 33 32 32
77 79 80 77 70 67 65 62 58 52 46 40 36 33 31 29 28 28 28 30 33 35 36 35 34 32 30
79 81 82 80 76 73 71 68 63 57 51 45 42 39 35 32 31 30 30 31 34 34 35 34 33 33 32
85 84 82 82 80 78 76 72 68 62 57 52 48 45 42 39 35 32 31 34 36 35 34 33 32 33 33
86 85 82 82 82 82 79 76 71 66 61 56 54 52 49 43 36 32 30 32 36 36 35 34 35 34 29
85 85 85 83 84 82 81 78 73 69 65 63 60 57 53 47 40 35 33 35 36 37 37 35 35 33 24
88 87 90 92 87 86 84 81 78 74 72 68 63 62 56 49 42 40 36 32 32 35 37 34 32 17 17
90 86 91 91 90 86 85 84 82 80 76 72 67 64 59 55 52 44 37 29 28 29 30 33 11 20 14
89 89 90 89 88 89 90 88 90 85 80 74 70 67 63 60 56 49 41 30 23 26 28 19 11 6 23
86 89 91 93 93 93 88 89 90 87 82 77 73 69 66 64 62 54 46 34 25 22 25 24 22 26 13
Wind_Direction_500mb
218 218 216 218 218 217 215 209 203 203 209 211 210 206 199 200 212 237 275 297 303 306 304 304 301 295 290
220 217 218 220 219 217 213 211 213 215 216 214 212 210 206 205 212 238 282 306 312 316 318 319 318 310 300
223 219 218 219 218 215 214 214 217 218 222 221 221 223 225 230 244 270 294 307 315 320 324 323 319 312 303
225 223 222 222 218 216 214 215 214 212 212 216 220 227 234 247 265 279 291 303 313 322 324 324 323 316 305
227 227 226 225 223 220 219 219 217 215 213 217 224 233 244 253 258 270 286 300 309 316 320 320 319 316 308
227 228 229 228 226 224 222 222 221 219 218 219 224 233 242 251 264 278 288 296 304 312 318 319 320 316 311
231 230 229 230 229 226 224 224 222 220 221 223 227 236 248 259 269 277 284 294 305 309 311 314 317 315 307
237 233 232 229 228 226 225 225 225 225 225 228 233 240 245 247 256 268 279 290 298 304 308 313 315 313 305
240 236 233 231 228 226 226 226 226 226 227 228 232 236 241 250 259 268 279 291 297 301 304 308 313 312 304
241 238 234 232 229 228 228 227 227 227 228 229 232 236 242 243 246 258 277 292 299 302 303 306 310 311 304
240 239 236 234 231 230 229 229 228 228 229 231 232 234 237 238 243 256 272 286 296 300 302 305 309 310 301
239 236 234 232 231 229 229 230 230 230 230 231 231 233 236 236 238 251 265 281 292 300 305 309 312 313 289
235 232 229 230 229 228 228 230 230 230 230 231 231 233 235 236 238 246 256 273 290 302 306 310 317 307 281
236 233 232 231 229 231 229 227 228 229 230 230 232 234 235 235 236 240 249 266 288 303 312 318 313 308 249
235 229 229 229 230 229 227 226 227 228 229 231 232 233 234 233 234 238 244 253 274 297 308 310 319 273 301
233 228 229 232 230 231 232 230 228 227 228 230 230 232 233 233 234 236 238 244 259 282 294 294 291 292 302
Wind_Speed_850mb
45 42 41 37 34 30 28 24 22 19 18 17 16 14 12 10 8 6 5 7 9 12 14 16 16 16 18
49 47 45 40 37 34 31 28 23 20 17 16 15 14 12 10 7 5 6 8 12 14 17 18 19 19 19
53 53 50 46 43 40 37 34 29 24 20 19 17 15 13 11 9 8 9 12 15 17 20 22 22 23 22
59 59 57 53 50 46 43 39 34 30 27 24 20 19 17 16 15 14 15 16 18 21 24 27 26 26 26
67 66 64 59 54 50 48 44 39 35 30 25 23 22 21 20 20 19 20 21 23 27 29 31 32 31 28
71 72 70 68 62 57 54 52 47 41 36 32 29 28 26 24 22 23 23 24 28 32 35 37 35 35 31
75 75 76 73 68 61 60 57 52 48 42 37 33 30 28 27 26 25 27 28 30 31 33 33 33 32 32
77 79 80 77 70 67 65 62 58 52 46 40 36 33 31 29 28 28 28 30 33 35 36 35 34 32 30
79 81 82 80 76 73 71 68 63 57 51 45 42 39 35 32 31 30 30 31 34 34 35 34 33 33 32
85 84 82 82 80 78 76 72 68 62 57 52 48 45 42 39 35 32 31 34 36 35 34 33 32 33 33
86 85 82 82 82 82 79 76 71 66 61 56 54 52 49 43 36 32 30 32 36 36 35 34 35 34 29
85 85 85 83 84 82 81 78 73 69 65 63 60 57 53 47 40 35 33 35 36 37 37 35 35 33 24
88 87 90 92 87 86 84 81 78 74 72 68 63 62 56 49 42 40 36 32 32 35 37 34 32 17 17
90 86 91 91 90 86 85 84 82 80 76 72 67 64 59 55 52 44 37 29 28 29 30 33 11 20 14
89 89 90 89 88 89 90 88 90 85 80 74 70 67 63 60 56 49 41 30 23 26 28 19 11 6 23
86 89 91 93 93 93 88 89 90 87 82 77 73 69 66 64 62 54 46 34 25 22 25 24 22 26 13
Wind_Direction_850mb
218 218 216 218 218 217 215 209 203 203 209 211 210 206 199 200 212 237 275 297 303 306 304 304 301 295 290
220 217 218 220 219 217 213 211 213 215 216 214 212 210 206 205 212 238 282 306 312 316 318 319 318 310 300
223 219 218 219 218 215 214 214 217 218 222 221 221 223 225 230 244 270 294 307 315 320 324 323 319 312 303
225 223 222 222 218 216 214 215 214 212 212 216 220 227 234 247 265 279 291 303 313 322 324 324 323 316 305
227 227 226 225 223 220 219 219 217 215 213 217 224 233 244 253 258 270 286 300 309 316 320 320 319 316 308
227 228 229 228 226 224 222 222 221 219 218 219 224 233 242 251 264 278 288 296 304 312 318 319 320 316 311
231 230 229 230 229 226 224 224 222 220 221 223 227 236 248 259 269 277 284 294 305 309 311 314 317 315 307
237 233 232 229 228 226 225 225 225 225 225 228 233 240 245 247 256 268 279 290 298 304 308 313 315 313 305
240 236 233 231 228 226 226 226 226 226 227 228 232 236 241 250 259 268 279 291 297 301 304 308 313 312 304
241 238 234 232 229 228 228 227 227 227 228 229 232 236 242 243 246 258 277 292 299 302 303 306 310 311 304
240 239 236 234 231 230 229 229 228 228 229 231 232 234 237 238 243 256 272 286 296 300 302 305 309 310 301
239 236 234 232 231 229 229 230 230 230 230 231 231 233 236 236 238 251 265 281 292 300 305 309 312 313 289
235 232 229 230 229 228 228 230 230 230 230 231 231 233 235 236 238 246 256 273 290 302 306 310 317 307 281
236 233 232 231 229 231 229 227 228 229 230 230 232 234 235 235 236 240 249 266 288 303 312 318 313 308 249
235 229 229 229 230 229 227 226 227 228 229 231 232 233 234 233 234 238 244 253 274 297 308 310 319 273 301
233 228 229 232 230 231 232 230 228 227 228 230 230 232 233 233 234 236 238 244 259 282 294 294 291 292 302